Date,TemperatureHighF,TemperatureAvgF,TemperatureLowF,DewpointHighF,DewpointAvgF,DewpointLowF,HumidityHigh,HumidityAvg,HumidityLow,PressureMaxIn,PressureMinIn,WindSpeedMaxMPH,WindSpeedAvgMPH,GustSpeedMaxMPH,PrecipitationSumIn
2013-1-1,53,48,39,35,23,14,82,42,24,0.00,40.00,4,-980,0,0.00
2013-1-2,60,53,47,19,16,14,27,22,18,0.00,40.00,0,-999,0,0.00
2013-1-3,60,56,52,17,13,7,24,18,15,0.00,40.00,0,-999,0,0.00
2013-1-4,65,54,49,29,14,4,36,21,14,0.00,40.00,0,-999,0,0.00
2013-1-5,61,51,45,40,20,-100,77,33,20,0.00,40.00,2,-974,0,0.00
2013-1-6,49,44,42,45,43,37,100,94,77,0.00,40.00,18,-876,0,0.00
2013-1-7,63,52,39,37,29,18,80,46,19,0.00,40.00,1,-976,0,0.00
2013-1-8,73,66,60,41,32,17,34,28,18,0.00,40.00,9,-968,0,0.00
2013-1-9,66,58,43,45,34,-100,100,48,29,0.00,40.00,2,-990,0,0.00
2013-1-10,49,43,37,46,29,-100,100,77,48,0.00,40.00,0,-999,0,0.00
2013-1-11,49,40,33,30,23,17,66,52,37,0.00,40.00,3,-975,0,0.00
2013-1-12,49,41,37,29,20,-100,65,46,31,0.00,40.00,0,-999,0,0.00
2013-1-13,49,40,37,34,22,10,78,50,34,0.00,40.00,3,-970,0,0.00
2013-1-14,47,39,32,10,3,-1,31,22,16,0.00,40.00,0,-999,0,0.00
2013-1-15,59,48,39,24,13,1,31,24,20,0.00,40.00,1,-969,0,0.00
2013-1-16,66,61,52,27,22,17,33,23,17,0.00,40.00,16,-966,25,0.00
2013-1-17,69,62,57,19,16,11,21,17,12,0.00,40.00,0,-949,0,0.00
2013-1-18,69,62,57,19,13,-100,18,16,14,0.00,40.00,4,-916,0,0.00
2013-1-19,74,64,59,20,13,10,16,14,11,0.00,40.00,6,-941,0,0.00
2013-1-20,72,64,59,18,12,6,14,13,10,0.00,40.00,6,-943,0,0.00
2013-1-21,74,66,61,12,-13,-100,13,8,8,0.00,40.00,4,-974,0,0.00
2013-1-22,77,64,58,23,12,3,18,13,8,0.00,40.00,0,-999,0,0.00
2013-1-23,72,64,51,50,29,5,98,30,9,0.00,40.00,0,-999,0,0.00
2013-1-24,57,54,51,56,53,50,100,98,90,0.00,40.00,9,-949,0,0.04
2013-1-25,59,56,52,56,53,50,100,92,77,0.00,40.00,0,-999,0,0.01
2013-1-26,66,55,47,57,52,47,100,92,65,0.00,40.00,0,-999,0,0.01
2013-1-27,51,46,42,48,40,23,100,80,44,0.00,40.00,0,-999,0,0.00
2013-1-28,53,45,37,39,30,23,74,57,43,0.00,40.00,0,-999,0,0.00
2013-1-29,56,47,41,41,33,27,77,60,42,0.00,40.00,15,-927,0,0.00
2013-1-30,67,54,43,44,38,35,79,58,34,0.00,40.00,87,-812,0,0.00
2013-1-31,76,67,63,44,38,33,42,34,30,0.00,40.00,0,-962,0,0.00
2013-2-1,73,65,58,46,32,-100,49,36,28,0.00,40.00,0,-999,0,0.00
2013-2-2,71,65,60,44,34,-100,56,38,31,0.00,40.00,0,-999,0,0.00
2013-2-3,73,64,58,47,42,35,56,46,32,0.00,40.00,0,-977,0,0.00
2013-2-4,72,60,52,55,41,31,76,51,39,0.00,40.00,0,-999,0,0.00
2013-2-5,56,48,42,52,46,41,100,95,63,0.00,40.00,18,-991,0,0.00
2013-2-6,62,50,42,52,46,42,100,89,63,0.00,40.00,0,-999,0,0.00
2013-2-7,55,47,40,48,44,35,100,90,70,0.00,40.00,2,-977,0,0.00
2013-2-8,45,41,38,44,39,32,100,91,74,0.00,40.00,0,-999,0,0.00
2013-2-9,53,44,37,40,34,28,93,69,45,0.00,40.00,1,-978,0,0.00
2013-2-10,52,42,37,43,39,32,99,88,69,0.00,40.00,1,-974,0,0.00
2013-2-11,58,51,45,33,21,-100,52,36,25,0.00,40.00,0,-999,0,0.00
2013-2-12,60,52,46,31,22,6,53,31,16,0.00,40.00,11,-945,0,0.00
2013-2-13,67,57,51,42,30,21,46,35,23,0.00,40.00,1,-976,0,0.00
2013-2-14,74,62,49,44,26,-100,45,29,20,0.00,40.00,0,-999,0,0.00
2013-2-15,75,66,59,28,19,-100,29,20,16,0.00,40.00,3,-977,0,0.00
2013-2-16,75,65,58,21,16,9,20,15,11,0.00,40.00,0,-999,0,0.00
2013-2-17,68,56,44,49,34,17,94,50,20,0.00,40.00,0,-999,0,0.00
2013-2-18,52,44,40,47,44,40,100,98,84,0.00,40.00,0,-999,0,0.00
2013-2-19,49,44,38,45,42,38,100,93,76,0.00,40.00,0,-999,0,0.00
2013-2-20,53,46,36,41,29,-100,84,58,50,0.00,40.00,0,-999,0,0.00
2013-2-21,56,46,38,44,36,27,88,68,48,0.00,40.00,5,-977,0,0.00
2013-2-22,63,52,42,39,30,23,59,43,32,0.00,40.00,2,-977,0,0.00
2013-2-23,60,51,44,50,37,21,92,60,36,0.00,40.00,3,-974,0,0.00
2013-2-24,60,52,45,30,15,4,50,24,13,0.00,40.00,6,-969,0,0.00
2013-2-25,65,56,47,29,21,4,49,27,13,0.00,40.00,2,-989,0,0.00
2013-2-26,70,61,49,28,14,-100,35,21,15,0.00,40.00,64,-819,0,0.00
2013-2-27,70,62,55,22,15,9,22,16,13,0.00,40.00,0,-999,0,0.00
2013-2-28,75,65,58,32,17,8,25,16,12,0.00,40.00,3,-977,0,0.00
2013-3-1,81,70,63,30,21,15,23,16,13,0.00,40.00,0,-999,0,0.00
2013-3-2,82,69,62,31,26,21,28,20,14,0.00,40.00,0,-999,0,0.00
2013-3-3,71,59,46,49,35,-100,98,50,18,0.00,40.00,0,-999,0,0.00
2013-3-4,64,50,42,53,42,-100,100,85,65,0.00,40.00,0,-999,0,0.00
2013-3-5,57,47,43,53,36,-100,100,90,80,0.00,40.00,5,-933,0,0.00
2013-3-6,51,45,40,47,44,40,100,97,75,0.00,40.00,0,-999,0,0.00
2013-3-7,46,45,43,46,44,42,100,97,87,0.00,40.00,0,-999,0,0.00
2013-3-8,52,46,41,46,43,40,100,90,74,0.00,40.00,0,-999,0,0.00
2013-3-9,59,48,40,46,36,-100,99,75,46,0.00,40.00,0,-999,0,0.00
2013-3-10,69,64,50,36,21,-100,56,24,15,0.00,40.00,0,-999,0,0.00
2013-3-11,74,63,55,42,29,18,38,28,17,0.00,40.00,1,-968,0,0.00
2013-3-12,80,67,57,45,26,-100,39,26,18,0.00,40.00,19,-974,0,0.00
2013-3-13,85,72,65,42,27,-100,27,21,16,0.00,40.00,0,-946,0,0.00
2013-3-14,88,73,65,50,29,-100,32,23,18,0.00,40.00,0,-999,0,0.00
2013-3-15,80,69,61,53,41,28,63,36,21,0.00,40.00,17,-973,0,0.00
2013-3-16,76,63,53,57,43,-100,83,55,46,0.00,40.00,0,-999,0,0.00
2013-3-17,74,62,48,54,42,-100,99,56,36,0.00,40.00,19,-980,0,0.00
2013-3-18,60,50,43,52,47,43,100,91,74,0.00,40.00,0,-999,0,0.00
2013-3-19,71,56,47,57,45,-100,99,80,38,0.00,40.00,0,-999,0,0.00
2013-3-20,70,60,52,54,45,-100,87,68,48,0.00,40.00,0,-999,0,0.00
2013-3-21,70,62,53,53,47,25,85,60,25,0.00,40.00,16,-968,0,0.00
2013-3-22,72,58,49,45,28,19,41,33,21,0.00,40.00,0,-999,0,0.00
2013-3-23,69,62,50,56,31,-100,68,39,15,0.00,40.00,0,-999,0,0.00
2013-3-24,75,67,54,54,41,25,55,40,18,0.00,40.00,0,-999,0,0.00
2013-3-25,74,62,54,50,37,27,57,39,29,0.00,40.00,0,-999,0,0.00
2013-3-26,69,57,49,56,43,32,84,61,37,0.00,40.00,11,-911,0,0.00
2013-3-27,65,53,43,54,39,-100,100,80,68,0.00,40.00,0,-999,0,0.00
2013-3-28,71,57,45,57,46,-100,100,81,57,0.00,40.00,0,-999,0,0.00
2013-3-29,78,61,51,58,48,42,85,64,42,0.00,40.00,0,-999,0,0.00
2013-3-30,71,58,46,55,42,-100,100,66,34,0.00,40.00,0,-999,0,0.00
2013-3-31,57,52,49,55,39,-100,100,91,90,0.00,40.00,0,-999,0,0.00
2013-4-1,57,50,47,53,49,47,100,97,81,0.00,40.00,0,-999,0,0.00
2013-4-2,71,58,46,57,46,-100,100,75,38,0.00,40.00,4,-926,0,0.00
2013-4-3,80,62,50,60,48,37,89,61,40,0.00,40.00,0,-999,0,0.00
2013-4-4,70,57,47,55,40,-100,100,76,45,0.00,40.00,0,-999,0,0.00
2013-4-5,67,56,47,58,49,-100,100,88,65,0.00,40.00,3,-935,0,0.00
2013-4-6,72,59,46,64,48,-100,100,76,54,0.00,40.00,1,-976,0,0.00
2013-4-7,74,62,50,64,35,-100,96,56,36,0.00,40.00,5,-983,0,0.00
2013-4-8,63,53,47,51,34,-100,100,67,35,0.00,40.00,0,-999,0,0.00
2013-4-9,66,59,51,37,27,-100,52,33,18,0.00,40.00,0,-999,0,0.00
2013-4-10,77,66,62,38,20,-100,35,20,14,0.00,40.00,26,-880,0,0.00
2013-4-11,69,61,52,51,38,-100,80,50,30,0.00,40.00,738,-734,0,0.00
2013-4-12,74,58,45,55,51,45,100,80,50,0.00,40.00,0,-999,0,0.00
2013-4-13,54,50,45,54,46,-100,100,97,88,0.00,40.00,0,-999,0,0.00
2013-4-14,53,50,48,52,40,-100,100,93,93,0.00,40.00,0,-999,0,0.00
2013-4-15,57,50,40,51,48,40,100,95,76,0.00,40.00,0,-999,0,0.00
2013-4-16,58,48,39,44,39,28,100,71,41,0.00,40.00,0,-999,0,0.00
2013-4-17,64,55,44,34,25,19,49,32,19,0.00,40.00,0,-999,0,0.00
2013-4-18,73,61,55,29,17,-100,30,20,13,0.00,40.00,1,-977,0,0.00
2013-4-19,78,70,62,35,20,-100,37,18,11,0.00,40.00,0,-999,0,0.00
2013-4-20,82,73,61,50,35,27,37,25,16,0.00,40.00,1,-977,0,0.00
2013-4-21,84,71,61,48,36,-100,49,32,22,0.00,40.00,0,-999,0,0.00
2013-4-22,71,60,46,56,53,46,100,78,51,0.00,40.00,0,-999,0,0.00
2013-4-23,69,55,45,56,51,45,100,86,63,0.00,40.00,0,-999,0,0.00
2013-4-24,52,50,47,52,50,47,100,100,100,0.00,40.00,17,-956,0,0.00
2013-4-25,66,56,46,51,48,44,100,78,55,0.00,40.00,0,-999,0,0.00
2013-4-26,74,67,54,54,50,44,81,57,49,0.00,40.00,19,-696,0,0.00
2013-4-27,87,69,60,55,48,33,72,50,18,0.00,40.00,0,-999,0,0.00
2013-4-28,85,68,55,60,46,-100,89,53,37,0.00,40.00,18,-736,0,0.00
2013-4-29,78,60,46,60,54,46,100,82,54,0.00,40.00,0,-999,0,0.00
2013-4-30,62,54,49,55,44,-100,100,89,78,0.00,40.00,17,-974,0,0.00
2013-5-1,81,62,51,58,42,-100,100,71,12,0.00,40.00,0,-999,0,0.00
2013-5-2,87,75,53,52,16,5,97,19,6,0.00,40.00,6,-959,0,0.00
2013-5-3,89,79,73,36,11,-100,22,9,6,0.00,40.00,0,-990,0,0.00
2013-5-4,77,64,50,58,42,-100,100,57,17,0.00,40.00,14,-939,0,0.00
2013-5-5,54,51,49,53,38,-100,100,90,90,0.00,40.00,0,-999,0,0.00
2013-5-6,62,54,50,56,51,45,100,92,57,0.00,40.00,0,-999,0,0.02
2013-5-7,64,55,49,54,42,-100,100,79,61,0.00,40.00,0,-999,0,0.01
2013-5-8,65,56,48,53,36,-100,100,73,56,0.00,40.00,0,-999,0,0.00
2013-5-9,71,59,48,58,52,46,100,80,57,0.00,40.00,0,-999,0,0.00
2013-5-10,81,66,52,61,54,48,97,68,32,0.00,40.00,0,-999,0,0.00
2013-5-11,101,76,60,77,53,41,78,47,23,0.00,40.00,0,-999,0,0.00
2013-5-12,96,84,72,57,50,44,44,32,20,0.00,40.00,0,-999,0,0.00
2013-5-13,96,85,78,54,40,-100,31,23,13,0.00,40.00,0,-999,0,0.00
2013-5-14,80,69,53,56,44,21,89,45,11,0.00,40.00,0,-999,0,0.00
2013-5-15,70,60,51,59,52,44,88,75,67,0.00,40.00,0,-999,0,0.00
2013-5-16,66,56,49,57,40,-100,100,87,48,0.00,40.00,19,-849,0,0.00
2013-5-17,68,59,51,58,50,-100,100,85,63,0.00,40.00,14,-977,0,0.00
2013-5-18,71,60,49,58,52,46,97,75,53,0.00,40.00,16,-977,0,0.00
2013-5-19,65,58,52,50,44,37,76,61,40,0.00,40.00,3,-939,0,0.00
2013-5-20,87,79,76,61,49,34,55,36,20,0.00,40.00,0,-999,0,0.00
2013-5-21,79,63,54,64,49,-100,100,72,32,0.00,40.00,0,-999,0,0.00
2013-5-22,69,57,50,58,51,44,100,81,52,0.00,40.00,19,-971,0,0.00
2013-5-23,68,57,49,55,51,43,100,81,58,0.00,40.00,3,-946,0,0.00
2013-5-24,69,58,48,58,51,43,96,77,57,0.00,40.00,0,-999,0,0.00
2013-5-25,67,57,50,57,50,43,95,80,66,0.00,40.00,2,-992,0,0.00
2013-5-26,67,57,47,57,51,44,100,81,63,0.00,40.00,2,-841,0,0.00
2013-5-27,73,61,50,58,48,-100,95,73,48,0.00,40.00,1,-938,0,0.00
2013-5-28,76,67,55,58,49,-100,89,59,39,0.00,40.00,0,-983,0,0.00
2013-5-29,83,72,58,60,47,-100,74,49,34,0.00,40.00,3,-974,0,0.00
2013-5-30,80,68,58,63,46,-100,87,62,45,0.00,40.00,0,-999,0,0.00
2013-5-31,78,63,53,63,49,-100,100,79,59,0.00,40.00,0,-999,0,0.00
2013-6-1,92,62,55,63,50,-100,100,79,25,0.00,40.00,0,-999,0,0.00
2013-6-2,69,59,54,63,52,-100,100,92,80,0.00,40.00,0,-999,0,0.00
2013-6-3,69,58,54,61,50,-100,100,90,74,0.00,40.00,19,-955,0,0.00
2013-6-4,67,58,53,59,56,53,100,93,74,0.00,40.00,0,-999,0,0.00
2013-6-5,70,59,49,59,55,49,100,88,67,0.00,40.00,0,-999,0,0.00
2013-6-6,74,61,52,64,56,52,100,85,64,0.00,40.00,0,-999,0,0.00
2013-6-7,79,59,51,62,56,51,100,90,56,0.00,40.00,0,-999,0,0.00
2013-6-8,73,58,52,73,57,52,100,95,71,0.00,40.00,15,-968,0,0.00
2013-6-9,67,58,52,67,53,-100,100,94,81,0.00,40.00,0,-999,0,0.00
2013-6-10,70,63,56,58,56,52,94,78,66,0.00,40.00,17,-967,0,0.00
2013-6-11,90,68,55,64,54,43,95,65,38,0.00,40.00,0,-999,0,0.00
2013-6-12,73,60,52,63,56,48,100,90,66,0.00,40.00,0,-999,7,0.00
2013-6-13,74,62,51,62,56,49,100,83,59,0.00,40.00,0,-999,180,0.00
2013-6-14,76,63,52,62,56,-100,98,81,61,0.00,40.00,16,-976,185,0.00
2013-6-15,69,59,51,60,56,51,100,89,71,0.00,40.00,0,-999,186,0.00
2013-6-16,76,62,50,61,55,43,100,77,41,0.00,40.00,0,-999,186,0.00
2013-6-17,81,69,61,62,54,41,77,59,36,0.00,40.00,0,-999,11,0.00
2013-6-18,76,66,54,62,54,-100,93,69,49,0.00,40.00,0,-999,11,0.00
2013-6-19,81,67,53,57,48,-100,92,56,20,0.00,40.00,2,-828,180,0.00
2013-6-20,77,69,61,58,47,36,61,46,33,0.00,40.00,0,-999,180,0.00
2013-6-22,77,69,59,62,46,-100,81,60,54,0.00,40.00,10,-972,182,0.00
2013-6-23,66,59,52,60,52,-100,100,87,60,0.00,40.00,3,-976,183,0.00
2013-6-24,64,58,51,61,53,-100,100,94,88,0.00,40.00,13,-974,13,0.00
2013-6-25,75,65,56,64,56,-100,100,82,57,0.00,40.00,0,-999,184,0.00
2013-6-26,87,72,64,65,47,-100,82,62,46,0.00,40.00,0,-999,9,0.00
2013-6-27,88,77,68,66,61,54,79,59,42,0.00,40.00,2,-964,9,0.00
2013-6-28,93,80,72,64,59,54,64,49,39,0.00,40.00,0,-999,186,0.00
2013-6-29,97,88,77,66,44,-100,44,32,28,0.00,40.00,0,-999,184,0.00
2013-6-30,99,85,72,69,63,50,75,50,27,0.00,40.00,0,-999,180,0.00
2013-7-1,92,79,69,65,59,50,75,52,32,0.00,40.00,0,-999,11,0.00
2013-7-2,84,75,69,65,56,48,72,52,40,0.00,40.00,0,-999,7,0.00
2013-7-3,86,73,67,65,57,48,79,58,38,0.00,40.00,0,-999,9,0.00
2013-7-4,83,70,63,64,52,-100,85,63,45,0.00,40.00,0,-999,8,0.00
2013-7-5,80,65,55,65,49,-100,100,77,1,0.00,40.00,0,-999,11,0.00
2013-7-6,80,63,56,66,60,54,100,90,62,0.00,40.00,0,-999,9,0.00
2013-7-7,83,65,55,66,57,40,100,79,34,0.00,40.00,0,-999,7,0.00
2013-7-8,73,69,66,46,42,39,47,37,29,0.00,40.00,0,-999,5,0.00
2013-7-9,92,82,78,59,46,39,38,28,22,0.00,40.00,0,-999,11,0.00
2013-7-10,82,72,64,65,57,47,81,59,37,0.00,40.00,13,-962,13,0.00
2013-7-11,76,70,64,67,62,53,97,78,54,0.00,40.00,0,-999,14,0.00
2013-7-12,81,69,60,68,60,-100,100,79,39,0.00,40.00,0,-999,136,0.00
2013-7-13,70,66,61,52,41,-100,68,54,38,0.00,40.00,0,-999,12,0.00
2013-7-14,79,68,63,55,51,49,73,54,37,0.00,40.00,0,-999,12,0.00
2013-7-15,85,72,64,61,53,42,77,54,27,0.00,40.00,0,-999,13,0.00
2013-7-16,83,72,63,56,43,30,46,36,23,0.00,40.00,0,-999,8,0.00
2013-7-17,85,77,65,53,43,30,43,31,20,0.00,40.00,0,-999,12,0.00
2013-7-18,75,69,65,54,27,-100,56,38,34,0.00,40.00,0,-999,5,0.00
2013-7-19,80,68,63,62,37,-100,75,55,53,0.00,40.00,0,-999,7,0.00
2013-7-20,80,65,55,66,60,54,100,84,61,0.00,40.00,12,-783,8,0.00
2013-7-21,74,67,60,66,62,57,100,87,66,0.00,40.00,13,-981,140,0.00
2013-7-22,81,70,62,66,61,53,94,72,54,0.00,40.00,19,-964,19,0.00
2013-7-23,81,69,62,64,59,54,84,72,56,0.00,40.00,0,-999,9,0.00
2013-7-24,81,67,63,63,52,-100,95,76,50,0.00,40.00,0,-999,40,0.00
2013-7-25,75,65,61,60,55,-100,86,76,60,0.00,40.00,0,-999,40,0.00
2013-7-26,80,68,60,62,60,56,92,77,54,0.00,40.00,0,-999,7,0.00
2013-7-27,80,67,61,63,59,56,93,77,56,0.00,40.00,0,-999,8,0.00
2013-7-28,72,60,52,63,57,52,100,91,68,0.00,40.00,0,-999,9,0.00
2013-7-29,77,63,52,61,56,49,100,80,56,0.00,40.00,17,-964,17,0.00
2013-7-30,73,64,52,61,52,-100,100,76,56,0.00,40.00,19,-973,19,0.00
2013-7-31,71,60,49,60,54,47,100,83,61,0.00,40.00,0,-999,8,0.00
2013-8-1,74,62,49,61,56,49,100,83,61,0.00,40.00,17,-987,17,0.00
2013-8-2,79,65,53,63,57,50,100,75,59,0.00,40.00,17,-969,17,0.00
2013-8-3,78,63,50,64,55,46,100,77,54,0.00,40.00,0,-999,8,0.00
2013-8-4,78,60,50,63,52,46,100,74,51,0.00,40.00,0,-999,7,0.00
2013-8-5,81,78,70,60,57,49,55,50,47,0.00,40.00,0,-999,9,0.00
2013-8-6,76,65,48,61,47,-100,99,68,47,0.00,40.00,0,-999,8,0.00
2013-8-7,78,65,55,61,17,-100,78,47,43,0.00,40.00,0,-999,9,0.00
2013-8-8,76,65,56,61,55,49,83,68,55,0.00,40.00,0,-999,8,0.00
2013-8-9,76,64,52,61,55,50,99,71,58,0.00,40.00,2,-967,9,0.00
2013-8-10,76,65,50,62,49,-100,100,68,1,0.00,40.00,0,-999,9,0.00
2013-8-11,78,63,55,63,48,-100,93,72,47,0.00,40.00,0,-999,8,0.00
2013-8-12,80,64,53,63,56,52,100,76,57,0.00,40.00,6,-665,7,0.00
2013-8-13,78,64,58,57,53,51,86,69,48,0.00,40.00,0,-999,3,0.00
2013-8-14,81,70,64,54,51,46,71,52,32,0.00,40.00,0,-999,7,0.00
2013-8-15,87,72,64,66,52,47,68,50,36,0.00,40.00,0,-999,7,0.00
2013-8-16,89,74,68,59,52,40,56,46,27,0.00,40.00,19,-978,19,0.00
2013-8-17,89,81,70,60,50,39,39,35,31,0.00,40.00,0,-999,8,0.00
2013-8-18,87,71,65,62,53,43,73,55,35,0.00,40.00,1,-853,8,0.00
2013-8-19,79,68,59,65,53,46,86,58,39,0.00,40.00,0,-999,8,0.00
2013-8-20,86,69,64,63,52,43,63,54,33,0.00,40.00,0,-999,8,0.00
2013-8-21,78,72,69,52,44,40,40,34,30,0.00,40.00,1,-951,7,0.00
2013-8-22,92,78,67,57,41,30,46,27,19,0.00,40.00,2,-963,8,0.00
2013-8-23,86,76,68,58,44,36,42,33,27,0.00,40.00,0,-999,14,0.00
2013-8-24,86,71,64,55,34,-100,56,35,23,0.00,40.00,0,-999,9,0.00
2013-8-25,88,75,66,50,42,32,39,31,23,0.00,40.00,0,-945,10,0.00
2013-8-26,90,84,72,64,53,25,61,36,16,0.00,40.00,0,-999,181,0.00
2013-8-27,88,80,76,65,63,61,67,55,40,0.00,40.00,0,-999,10,0.00
2013-8-28,92,85,77,61,51,36,41,32,20,0.00,40.00,0,-999,11,0.00
2013-8-29,96,83,76,60,51,46,47,34,24,0.00,40.00,1,-972,10,0.00
2013-8-30,90,84,77,71,63,48,78,49,31,0.00,40.00,1,-975,13,0.00
2013-8-31,88,79,74,74,71,69,90,77,58,0.00,40.00,16,-978,16,0.00
2013-9-1,87,77,70,72,69,65,94,78,60,0.00,40.00,0,-999,10,0.00
2013-9-2,87,77,69,70,66,58,89,70,52,0.00,40.00,0,-999,9,0.00
2013-9-3,93,82,72,67,56,-100,61,47,40,0.00,40.00,17,-952,10,0.00
2013-9-4,95,81,76,63,50,-100,46,40,32,0.00,40.00,0,-999,9,0.00
2013-9-5,97,86,78,60,46,-100,37,29,17,0.00,40.00,0,-999,11,0.00
2013-9-6,98,86,79,57,50,42,37,29,23,0.00,40.00,2,-974,9,0.00
2013-9-7,97,82,75,57,45,30,34,28,13,0.00,40.00,3,-969,14,0.00
2013-9-8,89,77,71,54,44,39,45,31,26,0.00,40.00,0,-999,7,0.00
2013-9-9,85,70,63,59,48,38,72,47,30,0.00,40.00,0,-999,7,0.00
2013-9-10,76,63,50,62,56,44,100,77,1,0.00,40.00,13,-970,13,0.00
2013-9-11,74,65,54,63,53,-100,100,76,51,0.00,40.00,0,-999,8,0.00
2013-9-12,85,69,61,53,40,-100,67,49,35,0.00,40.00,2,-759,9,0.00
2013-9-13,86,75,71,59,49,45,45,40,37,0.00,40.00,1,-963,8,0.00
2013-9-14,84,76,72,54,51,49,49,43,34,0.00,40.00,0,-999,7,0.00
2013-9-15,79,76,73,56,9,-100,46,30,37,0.00,40.00,0,-999,7,0.00
2013-9-16,78,76,75,45,-52,-100,35,12,35,0.00,40.00,0,-999,0,0.00
2013-9-17,81,68,61,60,49,40,69,51,36,0.00,40.00,1,-957,7,0.00
2013-9-18,65,59,54,52,41,-100,89,67,53,0.00,40.00,0,-999,5,0.00
2013-9-19,76,62,55,63,55,48,100,77,54,0.00,40.00,0,-999,7,0.00
2013-9-20,67,59,54,63,58,54,100,97,85,0.00,40.00,0,-999,9,0.00
2013-9-21,73,61,57,61,56,-100,100,89,1,0.00,40.00,0,-999,20,0.00
2013-9-22,76,64,53,56,46,-100,99,60,35,0.00,40.00,14,-953,18,0.00
2013-9-23,91,78,65,44,34,-100,42,24,16,0.00,40.00,0,-999,22,0.00
2013-9-24,86,74,64,53,37,-100,52,29,19,0.00,40.00,0,-999,12,0.00
2013-9-25,72,62,53,61,52,44,93,69,48,0.00,40.00,0,-999,200,0.00
2013-9-26,66,59,53,54,48,36,94,69,40,0.00,40.00,0,-999,62,0.00
2013-9-27,78,68,58,38,32,26,43,27,16,0.00,40.00,0,-999,26,0.00
2013-9-28,84,78,69,30,27,22,21,15,14,0.00,40.00,0,-999,31,0.00
2013-9-29,84,72,65,37,30,23,29,21,15,0.00,40.00,0,-999,102,0.00
2013-9-30,86,73,66,50,35,-100,50,31,21,0.00,40.00,0,-999,67,0.00
2013-10-1,76,66,62,60,53,48,73,63,56,0.00,40.00,0,-999,6,0.00
2013-10-2,72,62,55,61,57,49,100,83,1,0.00,40.00,0,-999,10,0.00
2013-10-3,70,58,52,60,56,52,100,92,70,0.00,40.00,0,-999,32,0.00
2013-10-4,80,69,52,53,24,-100,100,27,9,0.00,40.00,6,-973,30,0.00
2013-10-5,83,74,67,26,20,-100,19,14,11,0.00,40.00,3,-978,31,0.00
2013-10-6,88,78,71,25,16,-100,13,11,9,0.00,40.00,0,-999,18,0.00
2013-10-7,82,72,61,48,30,18,53,23,11,0.00,40.00,0,-999,9,0.00
2013-10-8,67,59,52,58,42,-100,99,73,36,0.00,40.00,14,-971,14,0.00
2013-10-9,55,52,48,53,46,-100,100,87,76,0.00,40.00,15,-932,17,0.00
2013-10-10,65,52,44,51,47,40,96,79,59,0.00,40.00,0,-999,11,0.00
2013-10-11,71,59,50,55,44,-100,84,65,50,0.00,40.00,0,-999,40,0.00
2013-10-12,75,64,56,57,42,-100,83,53,39,0.00,40.00,0,-999,10,0.00
2013-10-13,63,55,49,56,46,-100,100,83,54,0.00,40.00,15,-978,15,0.00
2013-10-14,82,68,52,53,40,33,93,40,20,0.00,40.00,11,-971,20,0.00
2013-10-15,81,72,67,34,31,29,26,22,17,0.00,40.00,1,-988,20,0.00
2013-10-16,81,71,64,30,26,24,24,19,13,0.00,40.00,0,-999,22,0.00
2013-10-17,81,69,63,35,27,-100,35,23,16,0.00,40.00,0,-952,17,0.00
2013-10-18,84,73,63,53,34,26,37,25,17,0.00,40.00,0,-999,11,0.00
2013-10-19,86,76,69,41,29,20,28,18,14,0.00,40.00,0,-999,17,0.00
2013-10-20,77,69,63,59,29,-100,56,29,17,0.00,40.00,2,-954,13,0.00
2013-10-21,76,62,56,52,42,29,61,48,28,0.00,40.00,0,-999,7,0.00
2013-10-22,79,63,58,57,37,24,59,38,25,0.00,40.00,0,-999,6,0.00
2013-10-23,67,55,46,57,52,41,100,86,1,0.00,40.00,0,-999,7,0.00
2013-10-24,67,55,50,57,53,50,100,93,68,0.00,40.00,0,-999,10,0.00
2013-10-25,76,55,47,59,51,45,100,89,46,0.00,40.00,0,-999,7,0.00
2013-10-26,75,75,75,-100,-100,-100,0,0,100,0.00,40.00,0,-999,5,0.00
2013-10-27,72,60,51,55,44,-100,100,69,1,0.00,40.00,13,-952,13,0.00
2013-10-28,58,52,49,52,49,42,100,91,59,0.00,40.00,0,-999,16,0.00
2013-10-29,60,52,47,50,48,45,100,85,63,0.00,40.00,0,-999,13,0.00
2013-10-30,66,56,47,54,44,36,100,69,35,0.00,40.00,0,-976,16,0.00
2013-10-31,78,65,53,45,38,27,52,38,23,0.00,40.00,2,-971,17,0.00
2013-11-1,84,74,60,41,25,-100,31,20,16,0.00,40.00,8,-980,17,0.00
2013-11-2,79,71,58,45,29,-100,40,26,19,0.00,40.00,15,-955,15,0.00
2013-11-3,64,55,49,56,48,-100,100,85,44,0.00,40.00,16,-976,16,0.00
2013-11-4,63,55,51,54,48,-100,100,85,41,0.00,40.00,0,-999,12,0.00
2013-11-5,68,61,57,32,17,-100,37,21,13,0.00,40.00,0,-973,31,0.00
2013-11-6,79,68,60,18,14,10,16,13,9,0.00,40.00,6,-955,25,0.00
2013-11-7,81,72,64,31,20,12,18,14,11,0.00,40.00,0,-999,17,0.00
2013-11-8,76,70,64,47,31,17,39,24,15,0.00,40.00,0,-999,8,0.00
2013-11-9,75,71,58,46,38,16,44,31,18,0.00,40.00,15,-931,15,0.00
2013-11-10,78,67,56,54,41,8,76,46,11,0.00,40.00,0,-999,9,0.00
2013-11-11,78,69,61,42,33,24,35,27,20,0.00,40.00,0,-999,11,0.00
2013-11-12,81,73,63,35,30,26,35,21,14,0.00,40.00,0,-999,14,0.00
2013-11-13,89,80,74,32,27,23,19,14,11,0.00,40.00,0,-999,25,0.00
2013-11-14,87,77,64,40,30,24,40,18,13,0.00,40.00,0,-973,21,0.00
2013-11-15,64,56,49,56,49,35,100,80,35,0.00,40.00,0,-999,11,0.00
2013-11-16,57,53,50,53,51,49,100,95,88,0.00,40.00,0,-999,8,0.00
2013-11-17,55,53,50,51,49,46,99,87,79,0.00,40.00,0,-999,7,0.00
2013-11-18,64,54,48,55,46,-100,100,85,72,0.00,40.00,0,-999,13,0.00
2013-11-19,65,53,47,54,44,-100,100,87,67,0.00,40.00,0,-999,9,0.00
2013-11-20,63,54,49,56,42,-100,100,89,74,0.00,40.00,0,-999,16,0.00
2013-11-21,55,52,50,55,52,43,100,98,82,0.00,40.00,0,-999,15,0.02
2013-11-22,54,49,46,43,36,-100,81,69,59,0.00,40.00,0,-999,28,0.00
2013-11-23,59,51,46,41,40,38,74,65,49,0.00,40.00,5,-934,23,0.00
2013-11-24,63,54,48,46,36,-100,76,60,49,0.00,40.00,0,-999,20,0.00
2013-11-25,70,61,54,47,37,33,57,41,31,0.00,40.00,5,-952,25,0.00
2013-11-26,72,65,57,41,37,31,43,36,25,0.00,40.00,12,-985,139,0.00
2013-11-27,69,62,56,40,35,-100,50,38,30,0.00,40.00,3,-956,24,0.00
2013-11-28,62,56,52,53,38,-100,96,57,41,0.00,40.00,0,-999,15,0.00
2013-11-29,61,57,51,50,44,-100,97,69,61,0.00,40.00,13,-923,19,0.00
2013-11-30,72,64,57,48,40,34,63,43,32,0.00,40.00,1,-977,19,0.00
2013-12-1,77,67,62,36,31,23,36,26,17,0.00,40.00,0,-999,25,0.00
2013-12-2,74,64,57,37,30,23,39,29,20,0.00,40.00,2,-904,9,0.00
2013-12-3,63,53,45,54,42,29,98,70,40,0.00,40.00,16,-968,18,0.00
2013-12-4,56,46,37,42,28,15,89,52,21,0.00,40.00,6,-983,14,0.00
2013-12-5,52,45,40,39,2,-100,75,47,43,0.00,40.00,4,-968,11,0.00
2013-12-6,52,44,39,41,0,-100,89,51,57,0.00,40.00,0,-999,13,0.00
2013-12-7,50,43,38,48,32,-100,100,77,53,0.00,40.00,0,-999,26,0.01
2013-12-8,51,42,36,33,26,14,74,54,36,0.00,40.00,5,-966,19,0.00
2013-12-9,49,43,39,15,5,-6,36,21,12,0.00,40.00,4,-983,151,0.00
2013-12-10,61,50,43,7,0,-100,16,13,11,0.00,40.00,0,-999,25,0.00
2013-12-11,66,56,47,15,10,5,19,15,13,0.00,40.00,6,-981,20,0.00
2013-12-12,66,58,50,45,21,-100,51,27,16,0.00,40.00,0,-999,22,0.00
2013-12-13,64,54,45,52,36,-100,91,51,32,0.00,40.00,0,-999,8,0.00
2013-12-14,68,62,56,23,19,-100,27,19,17,0.00,40.00,9,-935,31,0.00
2013-12-15,73,66,60,23,17,-100,22,17,14,0.00,40.00,4,-911,29,0.00
2013-12-16,81,74,65,31,24,22,19,15,14,0.00,40.00,5,-968,21,0.00
2013-12-17,83,73,62,39,30,25,43,20,14,0.00,40.00,0,-999,13,0.00
2013-12-18,70,60,47,53,39,-100,100,54,19,0.00,40.00,15,-965,15,0.00
2013-12-19,52,47,45,49,40,-100,100,84,68,0.00,40.00,0,-972,18,0.00
2013-12-20,62,52,48,41,23,-100,67,44,35,0.00,40.00,0,-999,134,0.00
2013-12-21,57,49,44,50,4,-100,93,51,1,0.00,40.00,0,-999,10,0.00
2013-12-22,66,54,45,53,-17,-100,68,31,40,0.00,40.00,0,-999,12,0.00
2013-12-23,71,65,58,36,31,-100,41,32,28,0.00,40.00,3,-977,25,0.00
2013-12-24,77,67,61,36,33,30,35,27,20,0.00,40.00,3,-984,23,0.00
2013-12-25,72,66,63,31,22,-100,28,21,12,0.00,40.00,5,-952,28,0.00
2013-12-26,73,67,62,12,8,-100,13,11,8,0.00,40.00,1,-940,27,0.00
2013-12-27,82,73,66,18,12,4,14,9,7,0.00,40.00,0,-999,16,0.00
2013-12-28,73,64,57,48,24,8,63,24,10,0.00,40.00,1,-957,9,0.00
2013-12-29,67,63,58,18,12,3,19,13,10,0.00,40.00,0,-999,33,0.00
2013-12-30,73,62,55,21,7,-100,18,12,9,0.00,40.00,12,-899,15,0.00
2013-12-31,70,60,54,37,19,-100,37,23,16,0.00,40.00,2,-978,8,0.00
2014-1-1,75,67,55,28,23,13,27,17,13,0.00,40.00,3,-954,20,0.00
2014-1-2,78,69,62,31,26,23,27,20,16,0.00,40.00,3,-981,18,0.00